| time (UTC) | temp F | wind direction | speed knots | gust knots | rain 1hr in | rain 24hr in | rain mn in | humidity % | barometer mb |
| 20260505031558 | 74 | 282 | 1.7 | 6.1 | 0.00 | 0.13 | 0.05 | 45 | 1017.2 |
| 20260505031502 | 74 | 277 | 1.7 | 6.1 | 0.00 | 0.13 | 0.05 | 45 | 1017.2 |
| 20260505030056 | 74 | 262 | 1.7 | 5.2 | 0.00 | 0.13 | 0.05 | 46 | 1017.4 |
| 20260505024601 | 73 | 255 | 2.6 | 5.2 | 0.00 | 0.13 | 0.05 | 49 | 1017.6 |
| 20260505023054 | 73 | 286 | 1.7 | 6.1 | 0.00 | 0.13 | 0.05 | 48 | 1017.8 |
| 20260505021549 | 72 | 271 | 0.9 | 5.2 | 0.00 | 0.13 | 0.05 | 50 | 1018.0 |
| 20260505020047 | 72 | 300 | 0.9 | 4.3 | 0.00 | 0.13 | 0.05 | 49 | 1018.2 |
| 20260505014616 | 71 | 315 | 0.9 | 4.3 | 0.00 | 0.13 | 0.05 | 52 | 1018.3 |
| 20260505013059 | 71 | 292 | 1.7 | 4.3 | 0.00 | 0.13 | 0.05 | 52 | 1018.4 |
| 20260505011543 | 71 | 267 | 1.7 | 6.1 | 0.00 | 0.13 | 0.05 | 51 | 1018.6 |
| 20260505010040 | 71 | 269 | 0.9 | 6.1 | 0.00 | 0.13 | 0.05 | 52 | 1018.7 |
| 20260505004538 | 70 | 290 | 1.7 | 7.0 | 0.00 | 0.13 | 0.05 | 54 | 1018.8 |
| 20260505003032 | 69 | 279 | 0.9 | 6.1 | 0.00 | 0.13 | 0.05 | 56 | 1018.9 |
| 20260505001526 | 68 | 209 | 1.7 | 6.1 | 0.00 | 0.13 | 0.05 | 55 | 1019.0 |
| 20260505000026 | 68 | 235 | 1.7 | 6.1 | 0.00 | 0.13 | 0.05 | 55 | 1019.1 |
| 20260504234519 | 67 | 210 | 0.9 | 7.8 | 0.00 | 0.13 | 0.05 | 58 | 1019.1 |
| 20260504233017 | 67 | 206 | 2.6 | 7.0 | 0.00 | 0.13 | 0.05 | 57 | 1019.2 |
| 20260504231516 | 66 | 205 | 1.7 | 8.7 | 0.00 | 0.13 | 0.05 | 59 | 1019.3 |
| 20260504230014 | 65 | 197 | 2.6 | 6.1 | 0.00 | 0.13 | 0.05 | 62 | 1019.4 |
| 20260504224641 | 64 | 202 | 0.9 | 4.3 | 0.00 | 0.13 | 0.05 | 67 | 1019.4 |
| 20260504223009 | 63 | 198 | 0.9 | 3.5 | 0.00 | 0.13 | 0.05 | 70 | 1019.3 |
| 20260504221507 | 62 | 196 | 0.9 | 4.3 | 0.00 | 0.13 | 0.05 | 73 | 1019.0 |
| 20260504220101 | 61 | 196 | 0.9 | 3.5 | 0.00 | 0.13 | 0.05 | 76 | 1018.9 |
| 20260504214614 | 61 | 196 | 0.9 | 4.3 | 0.00 | 0.13 | 0.05 | 78 | 1018.9 |
| 20260504213059 | 61 | 196 | 0.9 | 4.3 | 0.00 | 0.13 | 0.05 | 78 | 1018.6 |
| 20260504211554 | 61 | 193 | 0.9 | 7.8 | 0.00 | 0.13 | 0.05 | 79 | 1018.3 |
| 20260504210048 | 61 | 205 | 0.9 | 4.3 | 0.00 | 0.13 | 0.05 | 81 | 1017.9 |
| 20260504204545 | 60 | 215 | 1.7 | 4.3 | 0.00 | 0.13 | 0.05 | 84 | 1017.6 |
| 20260504203042 | 60 | 248 | 0.0 | 2.6 | 0.00 | 0.13 | 0.05 | 86 | 1017.6 |
| 20260504201548 | 61 | 248 | 0.0 | 6.1 | 0.00 | 0.13 | 0.05 | 89 | 1017.2 |
| 20260504200037 | 61 | 270 | 0.0 | 2.6 | 0.00 | 0.13 | 0.05 | 91 | 1017.1 |
| 20260504194533 | 61 | 273 | 0.0 | 1.7 | 0.00 | 0.13 | 0.05 | 92 | 1017.0 |
| 20260504193118 | 62 | 273 | 0.0 | 2.6 | 0.00 | 0.13 | 0.05 | 93 | 1016.7 |
| 20260504191542 | 63 | 279 | 0.0 | 2.6 | 0.00 | 0.13 | 0.05 | 94 | 1016.6 |
| 20260504190036 | 63 | 288 | 0.0 | 1.7 | 0.00 | 0.13 | 0.05 | 94 | 1016.5 |
| 20260504190006 | 63 | 288 | 0.0 | 0.9 | 0.00 | 0.13 | 0.05 | 94 | 1016.5 |
| 20260504184542 | 63 | 288 | 0.0 | 0.0 | 0.00 | 0.13 | 0.05 | 94 | 1016.5 |
| 20260504183032 | 63 | 288 | 0.0 | 0.0 | 0.00 | 0.13 | 0.05 | 94 | 1016.2 |
| 20260504181535 | 63 | 288 | 0.0 | 0.0 | 0.01 | 0.13 | 0.05 | 94 | 1016.5 |
| 20260504180030 | 64 | 288 | 0.0 | 0.9 | 0.01 | 0.13 | 0.05 | 94 | 1016.3 |
| 20260504174528 | 64 | 288 | 0.0 | 1.7 | 0.01 | 0.13 | 0.05 | 93 | 1016.3 |
| 20260504173031 | 64 | 292 | 0.0 | 0.0 | 0.01 | 0.13 | 0.05 | 93 | 1015.7 |
| 20260504171520 | 64 | 292 | 0.0 | 0.0 | 0.00 | 0.13 | 0.04 | 93 | 1016.0 |
| 20260504081558 | 70 | 294 | 0.0 | 2.6 | 0.00 | 0.00 | 0.00 | 79 | 1015.2 |
| 20260504044546 | 75 | 323 | 0.0 | 0.0 | 0.00 | 0.00 | 0.00 | 74 | 1014.9 |
| 20260504044513 | 75 | 322 | 0.0 | 0.0 | 0.00 | 0.00 | 0.00 | 74 | 1014.8 |
| 20260504043042 | 75 | 322 | 0.0 | 0.9 | 0.00 | 0.00 | 0.00 | 73 | 1014.8 |
| 20260504041536 | 76 | 323 | 0.0 | 0.9 | 0.00 | 0.00 | 0.00 | 71 | 1014.9 |
| 20260504040038 | 75 | 322 | 0.0 | 0.0 | 0.00 | 0.00 | 0.00 | 67 | 1015.1 |
| 20260504034518 | 75 | 323 | 0.0 | 0.0 | 0.00 | 0.00 | 0.00 | 69 | 1015.4 |
| 20260504033020 | 75 | 323 | 0.0 | 0.0 | 0.00 | 0.00 | 0.00 | 69 | 1015.2 |